Hourly Data Report for October 23, 2016

All times are specified in Local Standard Time (LST). Add 1 hour to adjust for Daylight Saving Time where and when it is observed.

KAMLOOPS A
BRITISH COLUMBIA

50°42'09.000" N
120°26'55.000" W
345.30 m
1163781
71887
YKA

Download Data

Hourly Data (October 2016)
Hourly Data Report for October 23, 2016
Temp Definition
°C
Dew Point Temp Definition
°C
Rel Hum Definition
%
Wind Dir Definition
10's deg

Wind Spd Definition
km/h
Visibility Definition
km
Stn Press Definition
kPa
Hmdx Definition


Wind Chill Definition


Weather Definition


TIME
00:00 Legend Double Dagger 8.3 2.8 68 8 13 64.4 97.19     LegendNANA
01:00 Legend Double Dagger 9.4 2.7 63 12 13 64.4 97.21     Mostly Cloudy
02:00 Legend Double Dagger 8.3 3.0 69 9 12 64.4 97.22     LegendNANA
03:00 Legend Double Dagger 8.4 2.9 68 8 13 64.4 97.25     LegendNANA
04:00 Legend Double Dagger 8.9 2.7 65 10 15 64.4 97.24     Cloudy
05:00 Legend Double Dagger 9.2 3.0 65 10 20 64.4 97.26     LegendNANA
06:00 Legend Double Dagger 9.1 2.5 63 12 17 64.4 97.28     LegendNANA
07:00 Legend Double Dagger 8.9 2.7 65 10 14 64.4 97.31     Mostly Cloudy
08:00 Legend Double Dagger 9.4 2.7 63 11 14 64.4 97.40     LegendNANA
09:00 Legend Double Dagger 10.0 3.3 63 11 19 64.4 97.43     LegendNANA
10:00 Legend Double Dagger 10.9 3.7 61 10 26 64.4 97.45     Mostly Cloudy
11:00 Legend Double Dagger 13.2 3.6 52 11 28 64.4 97.44     LegendNANA
12:00 Legend Double Dagger 13.3 3.4 51 8 21 64.4 97.41     LegendNANA
13:00 Legend Double Dagger 13.4 3.5 51 8 18 64.4 97.40     Mostly Cloudy
14:00 Legend Double Dagger 12.9 4.1 55 11 19 64.4 97.38     LegendNANA
15:00 Legend Double Dagger 12.7 4.0 55 8 13 64.4 97.38     LegendNANA
16:00 Legend Double Dagger 12.2 4.0 57 12 10 64.4 97.35     Cloudy
17:00 Legend Double Dagger 11.8 3.4 56 11 17 64.4 97.36     LegendNANA
18:00 Legend Double Dagger 10.7 3.8 62 11 13 64.4 97.36     LegendNANA
19:00 Legend Double Dagger 10.3 3.4 62 11 17 64.4 97.34     Cloudy
20:00 Legend Double Dagger 8.6 3.5 70 11 15 64.4 97.34     LegendNANA
21:00 Legend Double Dagger 8.4 3.9 73 11 14 64.4 97.30     LegendNANA
22:00 Legend Double Dagger 8.2 3.7 73 9 16 64.4 97.29     Mostly Cloudy
23:00 Legend Double Dagger 9.0 3.0 66 12 13 64.4 97.25     LegendNANA

Notes on Data Quality.

Legend

  • E = Estimated
  • M = Missing
  • NA = Not Available
  • ‡ = Partner data that is not subject to review by the National Climate Archives
Date modified: